Location: Newark
(39.0622°N, 106.5590°E)
Time: 14:37:16
(UTC+00:00)

S-56A Canister/Altair - Pass Details

Date: 24 January 2020
Orbit: 633 x 2500 km, 38.9° (Epoch: 28 February)

Event Time Altitude Azimuth Distance (km) Brightness Sun altitude
Rises 11:14:14 0° 208° (SSW) 4,666 12.2 -13.6°
Reaches altitude 10° 11:18:41 10° 193° (SSW) 3,311 11.1 -14.4°
Maximum altitude 11:24:03 20° 150° (SSE) 2,210 9.7 -15.5°
Enters shadow 11:26:54 15° 117° (ESE) 2,290 9.5 -16.0°
